TimeCDT,TemperatureF,Dew PointF,Humidity,Sea Level PressureIn,VisibilityMPH,Wind Direction,Wind SpeedMPH,Gust SpeedMPH,PrecipitationIn,Events,Conditions,WindDirDegrees,DateUTC
12:56 AM,55.0,50.0,83,30.20,10.0,Calm,Calm,-,N/A,,Clear,0,2013-08-04 05:56:00
1:56 AM,52.0,48.0,86,30.21,10.0,Calm,Calm,-,N/A,,Clear,0,2013-08-04 06:56:00
2:56 AM,51.1,50.0,96,30.21,9.0,Calm,Calm,-,N/A,,Partly Cloudy,0,2013-08-04 07:56:00
3:13 AM,51.8,51.8,100,30.21,1.8,Calm,Calm,-,N/A,,Clear,0,2013-08-04 08:13:00
3:24 AM,50.0,50.0,100,30.21,4.0,Calm,Calm,-,N/A,,Partly Cloudy,0,2013-08-04 08:24:00
3:56 AM,48.9,46.9,93,30.20,1.2,Calm,Calm,-,N/A,,Mostly Cloudy,0,2013-08-04 08:56:00
4:08 AM,50.0,48.2,94,30.20,0.5,Calm,Calm,-,N/A,Fog,Fog,0,2013-08-04 09:08:00
4:16 AM,48.2,48.2,100,30.20,0.5,NE,3.5,-,N/A,Fog,Fog,40,2013-08-04 09:16:00
4:29 AM,48.2,46.4,93,30.20,2.0,Calm,Calm,-,N/A,,Mostly Cloudy,0,2013-08-04 09:29:00
4:35 AM,48.2,48.2,100,30.20,0.8,Calm,Calm,-,N/A,,Mist,0,2013-08-04 09:35:00
4:45 AM,48.2,46.4,93,30.20,0.2,Calm,Calm,-,N/A,Fog,Fog,0,2013-08-04 09:45:00
4:49 AM,48.2,48.2,100,30.20,0.5,ENE,3.5,-,N/A,Fog,Fog,60,2013-08-04 09:49:00
4:56 AM,48.9,48.0,97,30.20,0.5,ENE,3.5,-,N/A,Fog,Fog,60,2013-08-04 09:56:00
5:04 AM,48.2,48.2,100,30.20,0.2,ENE,3.5,-,N/A,Fog,Fog,60,2013-08-04 10:04:00
5:22 AM,46.4,46.4,100,30.20,0.5,NE,3.5,-,N/A,Fog,Fog,50,2013-08-04 10:22:00
5:36 AM,46.4,46.4,100,30.19,0.2,ENE,3.5,-,N/A,Fog,Fog,70,2013-08-04 10:36:00
5:49 AM,48.2,48.2,100,30.20,10.0,ENE,3.5,-,N/A,,Clear,60,2013-08-04 10:49:00
5:56 AM,48.9,48.9,100,30.20,10.0,NE,4.6,-,N/A,,Clear,50,2013-08-04 10:56:00
6:03 AM,48.2,48.2,100,30.20,0.2,NE,4.6,-,N/A,Fog,Fog,50,2013-08-04 11:03:00
6:09 AM,48.2,48.2,100,30.20,1.0,NNE,3.5,-,N/A,,Clear,30,2013-08-04 11:09:00
6:26 AM,48.2,46.4,93,30.21,2.0,Calm,Calm,-,N/A,,Clear,0,2013-08-04 11:26:00
6:31 AM,48.2,48.2,100,30.22,0.8,NE,3.5,-,N/A,,Clear,50,2013-08-04 11:31:00
6:50 AM,50.0,50.0,100,30.22,2.5,NE,3.5,-,N/A,,Mostly Cloudy,40,2013-08-04 11:50:00
6:56 AM,52.0,51.1,97,30.23,9.0,Calm,Calm,-,N/A,,Mostly Cloudy,0,2013-08-04 11:56:00
7:56 AM,55.9,53.1,90,30.23,10.0,NE,4.6,-,N/A,,Scattered Clouds,50,2013-08-04 12:56:00
8:56 AM,64.9,51.1,61,30.24,10.0,East,8.1,-,N/A,,Clear,100,2013-08-04 13:56:00
9:56 AM,66.0,51.1,59,30.25,10.0,Variable,3.5,-,N/A,,Clear,0,2013-08-04 14:56:00
10:56 AM,69.1,51.1,53,30.22,10.0,South,8.1,-,N/A,,Partly Cloudy,170,2013-08-04 15:56:00
11:56 AM,71.1,51.1,49,30.21,10.0,South,6.9,-,N/A,,Partly Cloudy,180,2013-08-04 16:56:00
12:56 PM,71.1,51.1,49,30.18,10.0,SSE,8.1,-,N/A,,Partly Cloudy,160,2013-08-04 17:56:00
1:56 PM,73.9,48.9,41,30.17,10.0,SSW,8.1,-,N/A,,Clear,200,2013-08-04 18:56:00
2:56 PM,75.0,48.0,38,30.16,10.0,Variable,5.8,-,N/A,,Clear,0,2013-08-04 19:56:00
3:56 PM,75.0,48.9,40,30.15,10.0,SW,9.2,-,N/A,,Clear,220,2013-08-04 20:56:00
4:56 PM,75.0,50.0,41,30.14,10.0,SSW,9.2,-,N/A,,Clear,200,2013-08-04 21:56:00
5:56 PM,73.9,48.0,40,30.12,10.0,SW,8.1,-,N/A,,Clear,230,2013-08-04 22:56:00
6:56 PM,73.0,51.1,46,30.11,10.0,WSW,8.1,-,N/A,,Clear,240,2013-08-04 23:56:00
7:56 PM,71.1,50.0,47,30.09,10.0,SSW,8.1,-,N/A,,Clear,200,2013-08-05 00:56:00
8:56 PM,66.9,52.0,59,30.07,10.0,SSW,5.8,-,N/A,,Clear,210,2013-08-05 01:56:00
9:56 PM,63.0,53.1,70,30.08,10.0,Calm,Calm,-,N/A,,Clear,0,2013-08-05 02:56:00
10:56 PM,61.0,53.1,75,30.07,10.0,SSE,3.5,-,N/A,,Clear,160,2013-08-05 03:56:00
11:56 PM,57.9,52.0,81,30.06,10.0,Calm,Calm,-,N/A,,Clear,0,2013-08-05 04:56:00